Weather Roundup
Issued by NWS Corpus Christi, TX

Home | Current Version | Previous Version | Text Only | Print | Product List | Glossary On
Versions: 1 2 3 4 5 6 7 8 9 10 11 12 13 14 15 16 17 18 19 20 21 22 23 24 25 26 27 28 29 30 31 32 33 34 35 36 37 38 39 40 41 42 43 44 45 46 47 48 49 50
728
ASUS44 KCRP 270610
HRRCRP

SOUTH TEXAS REGIONAL WEATHER ROUNDUP
NATIONAL WEATHER SERVICE CORPUS CHRISTI TX
100 AM CDT TUE JUN 27 2017


TXZ229>244-270700-
...CORPUS CHRISTI AREA OBSERVATIONS...

CITY           SKY/WX    TMP DP  RH WIND       PRES   REMARKS
CORPUS CHRISTI PTCLDY    80  74  81 E3        29.98R
NAS CORPUS CHR CLEAR     83  76  79 E12       29.97  HX  91
ROCKPORT       PTCLDY    82  73  74 E9        29.98R
KINGSVILLE NAS CLEAR     76  76 100 MISG      29.97R
ALICE          CLOUDY    77  74  90 CALM      29.98R
ORANGE GROVE   CLOUDY    78  75  90 NE3       30.00R
FALFURRIAS     CLOUDY    78  74  88 CALM      29.97R
$$

...VICTORIA AREA OBSERVATIONS...

CITY           SKY/WX    TMP DP  RH WIND       PRES   REMARKS
VICTORIA       CLOUDY    77  74  90 SE5       30.00S
BEEVILLE       FAIR     N/A N/A N/A NE5       30.00S
PLEASANTON     CLOUDY    77  71  82 NE3       30.03R
SAN ANTONIO    LGT RAIN  75  72  90 NE3       30.05F
$$

...LAREDO AREA OBSERVATIONS...

CITY           SKY/WX    TMP DP  RH WIND       PRES   REMARKS
LAREDO         PTCLDY    77  73  87 E5        30.00R
COTULLA        PTCLDY    77  71  82 E7        30.01R
DEL RIO        LGT RAIN  75  71  87 E13       30.02R
MCALLEN        PTCLDY    80  73  79 CALM      29.97S
HEBBRONVILLE   CLOUDY    76  73  89 CALM      30.00F
$$

...OTHER TEXAS OBSERVATIONS...

CITY           SKY/WX    TMP DP  RH WIND       PRES   REMARKS
BROWNSVILLE    PTCLDY    78  76  93 E3        29.95F
HOUSTON        MOCLDY    75  72  90 CALM      30.02S
COL. STATION   CLOUDY    74  72  93 S3        30.03F
AUSTIN         LGT RAIN  76  76 100 CALM      30.03F
WACO           CLOUDY    79  72  79 S10       30.05R
FORT WORTH     MOCLDY    78  70  76 SE5       30.04S
WICHITA FALLS  CLEAR     71  68  90 E3        30.06R
LUBBOCK        PTCLDY    71  65  81 S8        30.15F
EL PASO        MOCLDY    80  59  48 E10       30.13R THUNDER
$$

...MARINE OBSERVATIONS...

STATION/POSITION TIME  SKY/WX   TEMP    WIND        PRES    VSBY  WAVE   SWELL
                                AIR SEA DIR/SP/G                  HT/PER HT/PER
                 (UTC)          (F)     (DEG/KT/KT) (MB)    (MI)  (FT/S) (FT/S)
PORT ARANSAS     0500            82 85   80/ 13/ 15 1014.7R
BUOY 90 E PORT A 0450            82 84  110/  8/ 10 1015.6          3/ 5   2/ 5
BUOY 45 SE BAFFI 0450            82     130/ 10/ 10 1013.6          3/ 5   3/ 5
BUOY 200 E PT IS 0450            82 83  130/  6/  8 1014.9          2/ 5   2/ 5
BUOY 15 E GALVES 0450            81 83  100/ 12/ 14 1016.5          2/ 5
$$




USA.gov is the U.S. government's official web portal to all federal, state and local government web resources and services.